San Diego, CA

2:35 AM PST on January 24, 2017 (GMT -0800)
Brown Municipal

Weather History for KSDM - May, 2013

Change the Weather History Date:

Tuesday, May 14, 2013

  Actual Average Record
Temperature  
Mean Temperature 65 °F 63 °F  
Max Temperature 75 °F 72 °F 96 °F (2014)
Min Temperature 55 °F 54 °F 49 °F (2008)
Degree Days  
Heating Degree Days 0 3  
Month to date heating degree days 47  
Since 1 July heating degree days 1662  
Cooling Degree Days 0 1  
Month to date cooling degree days 14  
Year to date cooling degree days 35  
Growing Degree Days 15 (Base 50)    
Moisture  
Dew Point 58 °F    
Average Humidity 86    
Maximum Humidity 100    
Minimum Humidity 59    
Precipitation  
Precipitation 0.00 in 0.00 in 0.06 in (2015)
Month to date precipitation 0.17  
Year to date precipitation 8.20  
Sea Level Pressure  
Sea Level Pressure 29.97 in    
Wind  
Wind Speed 3 mph (WNW)    
Max Wind Speed 10 mph    
Max Gust Speed 18 mph    
Visibility 7 miles    
Events Fog    
T = Trace of Precipitation, MM = Missing Value Source: NWS Daily Summary

Daily Weather History Graph

Daily Weather History Graph

Search for Another Location

Airport or City:

Trip Planner

Search our weather history database for the weather conditions in past years. The results will help you decide how hot, cold, wet, or windy it might be!

Date:

Astronomy

May. 14, 2013 Rise Set
Actual Time 5:49 AM PDT 7:39 PM PDT
Civil Twilight 5:22 AM PDT 8:06 PM PDT
Nautical Twilight 4:50 AM PDT 8:38 PM PDT
Astronomical Twilight 4:15 AM PDT 9:13 PM PDT
Moon 9:33 AM PDT (5/14) 11:31 PM PDT (5/14)
Length of Visible Light 14h 43m
Length of Day
13h 49m
Waxing Crescent, 19% of the Moon is Illuminated
May 14
Waxing Crescent
May 17
First Quarter
May 24
Full
May 31
Last Quarter
Jun 8
New

Hourly Weather History & Observations

Time (PDT) Temp. Dew Point Humidity Pressure Visibility Wind Dir Wind Speed Gust Speed Precip Events Conditions
12:53 AM 64.0 °F 61.0 °F 90% 29.93 in 10.0 mi WNW 4.6 mph - N/A   Clear
1:53 AM 62.1 °F 60.1 °F 93% 29.92 in 9.0 mi Calm Calm - N/A   Clear
2:53 AM 60.1 °F 59.0 °F 96% 29.92 in 6.0 mi Calm Calm - N/A   Clear
3:53 AM 59.0 °F 57.9 °F 96% 29.92 in 7.0 mi WSW 3.5 mph - N/A   Clear
4:38 AM 59.0 °F 59.0 °F 100% 29.93 in 2.0 mi Calm Calm - N/A   Clear
4:42 AM 60.8 °F 59.0 °F 94% 29.93 in 0.8 mi Calm Calm - N/A   Clear
4:49 AM 59.0 °F 57.2 °F 94% 29.93 in 0.2 mi Calm Calm - N/A Fog Fog
4:53 AM 59.0 °F 59.0 °F 100% 29.92 in 0.5 mi Calm Calm - N/A Fog Fog
4:57 AM 60.8 °F 60.8 °F 100% 29.93 in 1.2 mi Calm Calm - N/A   Partly Cloudy
5:00 AM 60.8 °F 59.0 °F 94% 29.93 in 3.0 mi Calm Calm - N/A   Partly Cloudy
5:29 AM 60.8 °F 59.0 °F 94% 29.94 in 7.0 mi Calm Calm - N/A   Mostly Cloudy
5:51 AM 60.8 °F 59.0 °F 94% 29.95 in 2.5 mi Calm Calm - N/A   Overcast
5:53 AM 60.1 °F 60.1 °F 100% 29.94 in 2.5 mi Calm Calm - N/A   Overcast
6:01 AM 60.8 °F 60.8 °F 100% 29.95 in 0.8 mi Calm Calm - N/A   Overcast
6:53 AM 61.0 °F 61.0 °F 100% 29.96 in 0.2 mi Calm Calm - N/A Fog Fog
7:53 AM 62.1 °F 62.1 °F 100% 29.96 in 1.8 mi WNW 3.5 mph - N/A   Overcast
7:56 AM 62.6 °F 62.6 °F 100% 29.98 in 2.5 mi West 4.6 mph - N/A   Overcast
8:07 AM 62.6 °F 62.6 °F 100% 29.98 in 5.0 mi WNW 3.5 mph - N/A   Mostly Cloudy
8:19 AM 62.6 °F 62.6 °F 100% 29.98 in 7.0 mi Calm Calm - N/A   Scattered Clouds
8:53 AM 68.0 °F 61.0 °F 78% 29.98 in 10.0 mi Variable 4.6 mph - N/A   Clear
9:53 AM 71.1 °F 60.1 °F 68% 29.98 in 10.0 mi WNW 4.6 mph - N/A   Clear
10:53 AM 73.0 °F 60.1 °F 64% 29.97 in 10.0 mi West 8.1 mph - N/A   Clear
11:53 AM 73.9 °F 59.0 °F 59% 29.97 in 10.0 mi WNW 6.9 mph - N/A   Clear
12:53 PM 73.9 °F 59.0 °F 59% 29.97 in 10.0 mi WNW 9.2 mph - N/A   Clear
1:53 PM 73.0 °F 57.9 °F 59% 29.97 in 10.0 mi West 8.1 mph 18.4 mph N/A   Clear
2:53 PM 72.0 °F 57.0 °F 59% 29.97 in 10.0 mi Variable 4.6 mph - N/A   Clear
3:53 PM 70.0 °F 55.0 °F 59% 29.96 in 10.0 mi WNW 8.1 mph - N/A   Clear
4:53 PM 69.1 °F 55.9 °F 63% 29.96 in 10.0 mi West 10.4 mph - N/A   Clear
5:53 PM 66.0 °F 55.9 °F 70% 29.96 in 10.0 mi West 9.2 mph - N/A   Clear
6:53 PM 63.0 °F 55.9 °F 78% 29.98 in 10.0 mi WNW 6.9 mph - N/A   Clear
7:50 PM 60.8 °F 55.4 °F 82% 30.00 in 10.0 mi WNW 6.9 mph - N/A   Mostly Cloudy
7:53 PM 61.0 °F 55.9 °F 83% 29.99 in 10.0 mi WNW 6.9 mph - N/A   Mostly Cloudy
8:44 PM 59.0 °F 55.4 °F 88% 30.01 in 10.0 mi West 4.6 mph - N/A   Scattered Clouds
8:53 PM 59.0 °F 55.0 °F 87% 30.01 in 10.0 mi Calm Calm - N/A   Partly Cloudy
9:41 PM 60.8 °F 55.4 °F 82% 30.03 in 10.0 mi Calm Calm - N/A   Mostly Cloudy
9:53 PM 59.0 °F 55.9 °F 90% 30.02 in 10.0 mi Calm Calm - N/A   Overcast
10:53 PM 57.9 °F 54.0 °F 87% 30.02 in 10.0 mi Calm Calm - N/A   Mostly Cloudy
11:53 PM 55.9 °F 53.1 °F 90% 30.02 in 10.0 mi SW 3.5 mph - N/A   Mostly Cloudy